STARLINK-4114 (53162 NORAD) Tracking and Keplerian Element Data

This shows tracking and keplerian element data for the satellite.

Feedback or suggestion? Click here.




ElementValue
Catalog53162
NameSTARLINK-4114
Epoch Orbit1185
Epoch Day270.25001157
Epoch Year2022
RAAN58.102
Inclination53.2174
Eccentricity0.0001183
Argument of Perigee82.0584
Mean Anonmoly342.2184
Mean Motion15.18835482
Decay Rate-0.01060166
L11 53162U 22083AG 22270.25001157 -.01060166 00000+0 -54935-1 0 9994
L22 53162 53.2174 58.1020 0001183 82.0584 342.2184 15.18835482 11851

Live tracking and technical data element details for STARLINK-4114 (NORAD 53162). STARLINK-4114 can be tracked NOW for your location showing map with azimuth and elevation plus other details from your city location.

Track the satellite on the map from your city or location and see movement details for azimuth, elevation, latitude, longitude, range, height, and movement on the map or in text.







IsCatalogInMostPopularTable: catalog: 53162, numindb: 7
Update: records affected: 1



GetName: 53162 STARLINK-4114

Hit Count: updated at: Fri, 30 Sep 2022 04:00:27 GMT